TimeMST,TemperatureF,Dew PointF,Humidity,Sea Level PressureIn,VisibilityMPH,Wind Direction,Wind SpeedMPH,Gust SpeedMPH,PrecipitationIn,Events,Conditions,WindDirDegrees,DateUTC
12:53 AM,93.9,57.0,29,29.80,10.0,East,5.8,-,N/A,,Clear,80,2013-08-17 07:53:00
1:53 AM,91.9,57.9,32,29.80,10.0,East,3.5,-,N/A,,Clear,100,2013-08-17 08:53:00
2:53 AM,91.0,57.9,33,29.79,10.0,NE,5.8,-,N/A,,Clear,50,2013-08-17 09:53:00
3:53 AM,91.0,57.9,33,29.79,10.0,ENE,6.9,-,N/A,,Clear,60,2013-08-17 10:53:00
4:53 AM,89.1,57.9,35,29.81,10.0,Calm,Calm,-,N/A,,Clear,0,2013-08-17 11:53:00
5:53 AM,89.1,57.9,35,29.83,10.0,Calm,Calm,-,N/A,,Clear,0,2013-08-17 12:53:00
6:53 AM,90.0,57.9,34,29.84,10.0,ENE,3.5,-,N/A,,Clear,70,2013-08-17 13:53:00
7:53 AM,91.9,59.0,33,29.86,10.0,East,5.8,-,N/A,,Clear,100,2013-08-17 14:53:00
8:53 AM,93.9,57.9,30,29.86,10.0,East,5.8,-,N/A,,Clear,90,2013-08-17 15:53:00
9:53 AM,97.0,57.9,27,29.86,10.0,South,4.6,-,N/A,,Clear,190,2013-08-17 16:53:00
10:53 AM,99.0,55.0,23,29.83,10.0,Calm,Calm,-,N/A,,Clear,0,2013-08-17 17:53:00
11:53 AM,100.9,55.0,22,29.80,10.0,Variable,4.6,-,N/A,,Clear,0,2013-08-17 18:53:00
12:53 PM,105.1,55.9,20,29.75,10.0,SE,8.1,-,N/A,,Clear,140,2013-08-17 19:53:00
1:53 PM,105.1,55.9,20,29.73,10.0,Variable,4.6,-,N/A,,Clear,0,2013-08-17 20:53:00
2:53 PM,107.1,53.1,17,29.70,10.0,SSW,8.1,-,N/A,,Clear,210,2013-08-17 21:53:00
3:53 PM,107.1,53.1,17,29.67,10.0,WSW,6.9,17.3,N/A,,Clear,240,2013-08-17 22:53:00
4:53 PM,108.0,52.0,16,29.66,10.0,South,6.9,-,N/A,,Clear,190,2013-08-17 23:53:00
5:53 PM,107.1,52.0,16,29.66,10.0,West,6.9,-,N/A,,Clear,260,2013-08-18 00:53:00
6:53 PM,102.9,53.1,19,29.70,10.0,NE,16.1,28.8,N/A,,Partly Cloudy,40,2013-08-18 01:53:00
7:53 PM,97.0,55.9,25,29.73,10.0,North,16.1,25.3,0.00,,Partly Cloudy,10,2013-08-18 02:53:00
8:06 PM,96.8,55.4,25,29.82,10.0,North,24.2,31.1,N/A,,Partly Cloudy,360,2013-08-18 03:06:00
8:53 PM,93.9,55.0,27,29.76,10.0,NNE,24.2,33.4,N/A,,Clear,30,2013-08-18 03:53:00
9:53 PM,91.9,54.0,27,29.83,10.0,East,13.8,33.4,N/A,,Clear,80,2013-08-18 04:53:00
10:53 PM,93.0,54.0,27,29.88,10.0,East,8.1,-,N/A,,Partly Cloudy,90,2013-08-18 05:53:00
11:53 PM,88.0,57.9,36,29.88,10.0,SE,11.5,-,N/A,,Scattered Clouds,130,2013-08-18 06:53:00